Skip Page Navigation
NASA JPL Caltech
NASA Logo - Jet Propulsion Laboratory + View the NASA Portal
+ Center for Near-Earth Object Studies
JPL Home Earth Solar System Stars & Galaxies Technology
JPL Solar System Dynamics
BODIES ORBITS EPHEMERIDES TOOLS PHYSICAL DATA DISCOVERY FAQ SITE MAP
JPL Small-Body Database Browser
Search: [ help ]  
441055 (2007 LS24)
Classification: Main-belt Asteroid          SPK-ID: 2441055
Ephemeris | Orbit Diagram | Orbital Elements | Mission Design | Physical Parameters | Discovery Circumstances ]

[ show orbit diagram ]
Orbital Elements at Epoch 2459000.5 (2020-May-31.0) TDB
Reference: JPL 16 (heliocentric ecliptic J2000)
 Element Value Uncertainty (1-sigma)   Units 
e .1167125978021198 8.4598e-08  
a 2.393010646217657 2.5177e-08 au
q 2.113716157129464 1.9592e-07 au
i 3.388283128930035 5.3534e-06 deg
node 99.31504879146146 0.00015552 deg
peri 124.2563210831011 0.00015819 deg
M 201.7010160420043 2.8462e-05 deg
tp 2459595.053581484315
(2022-Jan-15.55358148)
0.00010802 TDB
period 1352.120424166134
3.70
2.1339e-05
5.842e-08
d
yr
n .2662484742969662 4.2019e-09 deg/d
Q 2.672305135305848 2.8116e-08 au
  Orbit Determination Parameters
   # obs. used (total)      101  
   data-arc span      4519 days (12.37 yr)  
   first obs. used      2007-06-14  
   last obs. used      2019-10-28  
   planetary ephem.      DE431  
   SB-pert. ephem.      SB431-N16  
   condition code      0  
   norm. resid. RMS      .66426  
   source      ORB  
   producer      Otto Matic  
   solution date      2019-Nov-08 15:55:47  

Additional Information
 Earth MOID = 1.10682 au 
 Jupiter MOID = 2.30516 au 
 T_jup = 3.519 
[ show covariance matrix ]

Ephemeris | Orbit Diagram | Orbital Elements | Mission Design | Physical Parameters | Discovery Circumstances ]

Physical Parameter Table
Parameter Symbol Value Units Sigma Reference Notes
absolute magnitude H 17.7   n/a MPO450443  

441055 (2007 LS24)          Discovered 2007-Jun-14 by Spacewatch at Kitt Peak
Reference: Last Updated: 2015-09-02

Alternate Designations
 2007 LS24 = 2012 VU68 
Ephemeris | Orbit Diagram | Orbital Elements | Mission Design | Physical Parameters | Discovery Circumstances ]
ABOUT SSD CREDITS/AWARDS PRIVACY/COPYRIGHT GLOSSARY LINKS
FirstGov 2020-Jul-07 13:58 UT
(server date/time)  
NASA Home Page
Site Manager:   Ryan S. Park
Webmaster  Alan B. Chamberlin